Time,TemperatureF,DewpointF,PressureIn,WindDirection,WindDirectionDegrees,WindSpeedMPH,WindSpeedGustMPH,Humidity,HourlyPrecipIn,Conditions,Clouds,dailyrainin,SolarRadiationWatts/m^2,SoftwareType,DateUTC
2013-02-20 00:00:00,25.3,18.5,30.15,NW,317,7.0,18.0,75,0.00,,---,0.00,0.00,VWS V14.00,2013-02-20 05:00:00,
2013-02-20 00:01:00,25.3,18.5,30.15,NW,308,6.0,10.0,75,0.00,,---,0.00,0.00,VWS V14.00,2013-02-20 05:01:00,
2013-02-20 00:06:00,25.2,18.7,30.15,NW,321,9.0,15.0,76,0.00,,---,0.00,0.00,VWS V14.00,2013-02-20 05:06:00,
2013-02-20 00:11:00,25.2,18.1,30.15,NNW,344,15.0,22.0,74,0.00,,---,0.00,0.00,VWS V14.00,2013-02-20 05:11:00,
2013-02-20 00:16:00,25.0,17.6,30.15,NNW,329,10.0,15.0,73,0.00,,---,0.00,0.00,VWS V14.00,2013-02-20 05:16:00,
2013-02-20 00:21:00,25.0,17.6,30.15,NW,306,12.0,12.0,73,0.00,,---,0.00,0.00,VWS V14.00,2013-02-20 05:21:00,
2013-02-20 00:26:00,24.9,17.2,30.16,WNW,298,7.0,16.0,72,0.00,,---,0.00,0.00,VWS V14.00,2013-02-20 05:26:00,
2013-02-20 00:31:00,24.9,17.2,30.16,NW,326,9.0,13.0,72,0.00,,---,0.00,0.00,VWS V14.00,2013-02-20 05:31:00,
2013-02-20 00:36:00,24.9,17.2,30.15,WNW,290,8.0,11.0,72,0.00,,---,0.00,0.00,VWS V14.00,2013-02-20 05:36:00,
2013-02-20 00:41:00,24.9,17.5,30.15,WNW,303,11.0,16.0,73,0.00,,---,0.00,0.00,VWS V14.00,2013-02-20 05:41:00,
2013-02-20 00:46:00,24.8,16.8,30.16,NW,313,6.0,12.0,71,0.00,,---,0.00,0.00,VWS V14.00,2013-02-20 05:46:00,
2013-02-20 00:51:00,24.7,16.6,30.15,NW,317,10.0,12.0,71,0.00,,---,0.00,0.00,VWS V14.00,2013-02-20 05:51:00,
2013-02-20 00:56:00,24.7,16.6,30.16,NW,313,11.0,18.0,71,0.00,,---,0.00,0.00,VWS V14.00,2013-02-20 05:56:00,
2013-02-20 01:01:00,24.6,16.9,30.16,NW,309,7.0,9.0,72,0.00,,---,0.00,0.00,VWS V14.00,2013-02-20 06:01:00,
2013-02-20 01:06:00,24.5,16.8,30.16,NW,318,10.0,12.0,72,0.00,,---,0.00,0.00,VWS V14.00,2013-02-20 06:06:00,
2013-02-20 01:11:00,24.5,16.5,30.16,NW,320,7.0,14.0,71,0.00,,---,0.00,0.00,VWS V14.00,2013-02-20 06:11:00,
2013-02-20 01:16:00,24.5,16.5,30.16,NNW,329,5.0,18.0,71,0.00,,---,0.00,0.00,VWS V14.00,2013-02-20 06:16:00,
2013-02-20 01:21:00,24.5,16.1,30.16,NNW,331,10.0,15.0,70,0.00,,---,0.00,0.00,VWS V14.00,2013-02-20 06:21:00,
2013-02-20 01:26:00,24.5,16.5,30.16,WNW,297,11.0,14.0,71,0.00,,---,0.00,0.00,VWS V14.00,2013-02-20 06:26:00,
2013-02-20 01:31:00,24.5,16.1,30.16,NW,320,5.0,10.0,70,0.00,,---,0.00,0.00,VWS V14.00,2013-02-20 06:31:00,
2013-02-20 01:36:00,24.5,16.1,30.17,West,277,9.0,14.0,70,0.00,,---,0.00,0.00,VWS V14.00,2013-02-20 06:36:00,
2013-02-20 01:41:00,24.4,16.0,30.17,NW,311,12.0,13.0,70,0.00,,---,0.00,0.00,VWS V14.00,2013-02-20 06:41:00,
2013-02-20 01:46:00,24.5,16.5,30.17,WNW,303,9.0,12.0,71,0.00,,---,0.00,0.00,VWS V14.00,2013-02-20 06:46:00,
2013-02-20 01:51:00,24.5,16.5,30.17,NW,311,13.0,15.0,71,0.00,,---,0.00,0.00,VWS V14.00,2013-02-20 06:51:00,
2013-02-20 01:56:00,24.4,16.4,30.16,NW,312,10.0,12.0,71,0.00,,---,0.00,0.00,VWS V14.00,2013-02-20 06:56:00,
2013-02-20 02:02:00,24.4,16.4,30.17,NW,304,9.0,18.0,71,0.00,,---,0.00,0.00,VWS V14.00,2013-02-20 07:02:00,
2013-02-20 02:07:00,24.3,16.6,30.17,NW,311,10.0,11.0,72,0.00,,---,0.00,0.00,VWS V14.00,2013-02-20 07:07:00,
2013-02-20 02:12:00,24.3,16.6,30.17,NW,312,8.0,9.0,72,0.00,,---,0.00,0.00,VWS V14.00,2013-02-20 07:12:00,
2013-02-20 02:17:00,24.3,16.9,30.17,WNW,292,8.0,10.0,73,0.00,,---,0.00,0.00,VWS V14.00,2013-02-20 07:17:00,
2013-02-20 02:22:00,24.3,16.9,30.17,NW,322,11.0,12.0,73,0.00,,---,0.00,0.00,VWS V14.00,2013-02-20 07:22:00,
2013-02-20 02:27:00,24.3,17.2,30.17,NW,325,8.0,13.0,74,0.00,,---,0.00,0.00,VWS V14.00,2013-02-20 07:27:00,
2013-02-20 02:32:00,24.2,17.4,30.18,NW,315,6.0,10.0,75,0.00,,---,0.00,0.00,VWS V14.00,2013-02-20 07:32:00,
2013-02-20 02:37:00,24.2,17.4,30.18,NW,325,10.0,10.0,75,0.00,,---,0.00,0.00,VWS V14.00,2013-02-20 07:37:00,
2013-02-20 02:42:00,24.1,17.3,30.17,NW,316,11.0,13.0,75,0.00,,---,0.00,0.00,VWS V14.00,2013-02-20 07:42:00,
2013-02-20 02:47:00,24.0,16.9,30.17,NW,313,13.0,13.0,74,0.00,,---,0.00,0.00,VWS V14.00,2013-02-20 07:47:00,
2013-02-20 02:52:00,24.0,16.9,30.17,NW,323,8.0,14.0,74,0.00,,---,0.00,0.00,VWS V14.00,2013-02-20 07:52:00,
2013-02-20 02:57:00,24.0,16.9,30.17,NW,319,13.0,13.0,74,0.00,,---,0.00,0.00,VWS V14.00,2013-02-20 07:57:00,
2013-02-20 03:05:00,23.8,15.8,30.17,NW,307,8.0,19.0,71,0.00,,---,0.00,0.00,VWS V14.00,2013-02-20 08:05:00,
2013-02-20 03:10:00,23.7,15.4,30.18,NW,309,10.0,15.0,70,0.00,,---,0.00,0.00,VWS V14.00,2013-02-20 08:10:00,
2013-02-20 03:17:00,23.6,14.9,30.18,NW,304,9.0,14.0,69,0.00,,---,0.00,0.00,VWS V14.00,2013-02-20 08:17:00,
2013-02-20 03:22:00,23.4,14.8,30.18,NNW,332,11.0,20.0,69,0.00,,---,0.00,0.00,VWS V14.00,2013-02-20 08:22:00,
2013-02-20 03:27:00,23.3,14.3,30.18,NW,316,9.0,16.0,68,0.00,,---,0.00,0.00,VWS V14.00,2013-02-20 08:27:00,
2013-02-20 03:32:00,23.1,14.5,30.19,NW,321,10.0,21.0,69,0.00,,---,0.00,0.00,VWS V14.00,2013-02-20 08:32:00,
2013-02-20 03:37:00,23.1,14.5,30.19,NNW,331,10.0,12.0,69,0.00,,---,0.00,0.00,VWS V14.00,2013-02-20 08:37:00,
2013-02-20 03:42:00,23.0,14.4,30.19,NW,313,11.0,15.0,69,0.00,,---,0.00,0.00,VWS V14.00,2013-02-20 08:42:00,
2013-02-20 03:47:00,23.0,14.7,30.19,NW,305,6.0,10.0,70,0.00,,---,0.00,0.00,VWS V14.00,2013-02-20 08:47:00,
2013-02-20 03:52:00,22.9,14.6,30.20,NW,304,8.0,12.0,70,0.00,,---,0.00,0.00,VWS V14.00,2013-02-20 08:52:00,
2013-02-20 03:57:00,22.8,14.5,30.20,NW,308,8.0,11.0,70,0.00,,---,0.00,0.00,VWS V14.00,2013-02-20 08:57:00,
2013-02-20 04:02:00,22.8,14.5,30.20,NW,304,12.0,14.0,70,0.00,,---,0.00,0.00,VWS V14.00,2013-02-20 09:02:00,
2013-02-20 04:07:00,22.8,14.5,30.20,WNW,302,7.0,11.0,70,0.00,,---,0.00,0.00,VWS V14.00,2013-02-20 09:07:00,
2013-02-20 04:12:00,22.7,14.7,30.20,NW,306,7.0,9.0,71,0.00,,---,0.00,0.00,VWS V14.00,2013-02-20 09:12:00,
2013-02-20 04:17:00,22.7,14.7,30.20,WNW,302,8.0,12.0,71,0.00,,---,0.00,0.00,VWS V14.00,2013-02-20 09:17:00,
2013-02-20 04:22:00,22.7,14.7,30.20,NW,311,9.0,15.0,71,0.00,,---,0.00,0.00,VWS V14.00,2013-02-20 09:22:00,
2013-02-20 04:27:00,22.6,14.6,30.20,WNW,291,8.0,14.0,71,0.00,,---,0.00,0.00,VWS V14.00,2013-02-20 09:27:00,
2013-02-20 04:32:00,22.6,14.6,30.20,NNW,329,6.0,13.0,71,0.00,,---,0.00,0.00,VWS V14.00,2013-02-20 09:32:00,
2013-02-20 04:37:00,22.5,14.5,30.20,NNW,331,11.0,15.0,71,0.00,,---,0.00,0.00,VWS V14.00,2013-02-20 09:37:00,
2013-02-20 04:42:00,22.5,14.5,30.21,NW,305,18.0,18.0,71,0.00,,---,0.00,0.00,VWS V14.00,2013-02-20 09:42:00,
2013-02-20 04:47:00,22.4,14.1,30.21,NW,320,9.0,22.0,70,0.00,,---,0.00,0.00,VWS V14.00,2013-02-20 09:47:00,
2013-02-20 04:52:00,22.4,14.1,30.21,WNW,299,7.0,13.0,70,0.00,,---,0.00,0.00,VWS V14.00,2013-02-20 09:52:00,
2013-02-20 04:57:00,22.4,14.1,30.21,WNW,285,7.0,18.0,70,0.00,,---,0.00,0.00,VWS V14.00,2013-02-20 09:57:00,
2013-02-20 05:02:00,22.4,14.1,30.22,West,278,9.0,13.0,70,0.00,,---,0.00,0.00,VWS V14.00,2013-02-20 10:02:00,
2013-02-20 05:07:00,22.4,14.1,30.22,NNW,333,10.0,14.0,70,0.00,,---,0.00,0.00,VWS V14.00,2013-02-20 10:07:00,
2013-02-20 05:12:00,22.4,14.1,30.22,NW,310,12.0,13.0,70,0.00,,---,0.00,0.00,VWS V14.00,2013-02-20 10:12:00,
2013-02-20 05:17:00,22.5,14.2,30.21,NW,315,7.0,13.0,70,0.00,,---,0.00,0.00,VWS V14.00,2013-02-20 10:17:00,
2013-02-20 05:22:00,22.4,13.8,30.21,WNW,301,10.0,14.0,69,0.00,,---,0.00,0.00,VWS V14.00,2013-02-20 10:22:00,
2013-02-20 05:27:00,22.4,14.1,30.21,WNW,300,7.0,9.0,70,0.00,,---,0.00,0.00,VWS V14.00,2013-02-20 10:27:00,
2013-02-20 05:32:00,22.4,14.1,30.22,WNW,289,7.0,10.0,70,0.00,,---,0.00,0.00,VWS V14.00,2013-02-20 10:32:00,
2013-02-20 05:37:00,22.5,14.2,30.22,NW,323,10.0,12.0,70,0.00,,---,0.00,0.00,VWS V14.00,2013-02-20 10:37:00,
2013-02-20 05:42:00,22.4,14.1,30.22,NNW,345,10.0,15.0,70,0.00,,---,0.00,0.00,VWS V14.00,2013-02-20 10:42:00,
2013-02-20 05:47:00,22.4,14.1,30.22,West,277,10.0,13.0,70,0.00,,---,0.00,0.00,VWS V14.00,2013-02-20 10:47:00,
2013-02-20 05:52:00,22.4,14.4,30.22,WNW,300,8.0,11.0,71,0.00,,---,0.00,0.00,VWS V14.00,2013-02-20 10:52:00,
2013-02-20 05:57:00,22.4,14.4,30.23,NW,309,7.0,14.0,71,0.00,,---,0.00,0.00,VWS V14.00,2013-02-20 10:57:00,
2013-02-20 06:02:00,22.3,14.3,30.23,NW,309,8.0,12.0,71,0.00,,---,0.00,0.00,VWS V14.00,2013-02-20 11:02:00,
2013-02-20 06:07:00,22.4,14.4,30.23,NW,315,10.0,10.0,71,0.00,,---,0.00,0.00,VWS V14.00,2013-02-20 11:07:00,
2013-02-20 06:12:00,22.4,14.4,30.23,SW,226,4.0,13.0,71,0.00,,---,0.00,0.00,VWS V14.00,2013-02-20 11:12:00,
2013-02-20 06:17:00,22.4,14.4,30.23,WNW,299,8.0,12.0,71,0.00,,---,0.00,0.00,VWS V14.00,2013-02-20 11:17:00,
2013-02-20 06:22:00,22.4,14.8,30.23,NNW,333,9.0,13.0,72,0.00,,---,0.00,0.00,VWS V14.00,2013-02-20 11:22:00,
2013-02-20 06:27:00,22.3,14.7,30.23,NW,304,6.0,14.0,72,0.00,,---,0.00,0.00,VWS V14.00,2013-02-20 11:27:00,
2013-02-20 06:32:00,22.2,14.2,30.23,WNW,296,7.0,12.0,71,0.00,,---,0.00,0.00,VWS V14.00,2013-02-20 11:32:00,
2013-02-20 06:37:00,22.1,14.1,30.23,NW,311,9.0,13.0,71,0.00,,---,0.00,0.00,VWS V14.00,2013-02-20 11:37:00,
2013-02-20 06:42:00,22.1,14.1,30.24,NW,319,10.0,15.0,71,0.00,,---,0.00,0.00,VWS V14.00,2013-02-20 11:42:00,
2013-02-20 06:47:00,22.1,14.1,30.24,NW,320,13.0,13.0,71,0.00,,---,0.00,0.00,VWS V14.00,2013-02-20 11:47:00,
2013-02-20 06:52:00,22.1,14.1,30.24,NW,308,9.0,11.0,71,0.00,,---,0.00,0.00,VWS V14.00,2013-02-20 11:52:00,
2013-02-20 06:57:00,22.1,14.1,30.24,NW,324,9.0,14.0,71,0.00,,---,0.00,0.00,VWS V14.00,2013-02-20 11:57:00,
2013-02-20 07:02:00,22.0,14.4,30.24,West,279,11.0,13.0,72,0.00,,---,0.00,0.00,VWS V14.00,2013-02-20 12:02:00,
2013-02-20 07:07:00,21.9,14.3,30.24,NNW,327,7.0,12.0,72,0.00,,---,0.00,0.00,VWS V14.00,2013-02-20 12:07:00,
2013-02-20 07:12:00,21.8,14.5,30.24,NNW,327,7.0,12.0,73,0.00,,---,0.00,0.00,VWS V14.00,2013-02-20 12:12:00,
2013-02-20 07:17:00,21.8,14.5,30.24,NW,319,7.0,12.0,73,0.00,,---,0.00,0.00,VWS V14.00,2013-02-20 12:17:00,
2013-02-20 07:22:00,21.8,14.5,30.24,NNW,340,2.0,9.0,73,0.00,,---,0.00,0.00,VWS V14.00,2013-02-20 12:22:00,
2013-02-20 07:27:00,21.8,14.8,30.25,NW,305,4.0,8.0,74,0.00,,---,0.00,7.00,VWS V14.00,2013-02-20 12:27:00,
2013-02-20 07:32:00,21.8,14.8,30.25,NW,313,1.0,9.0,74,0.00,,---,0.00,11.00,VWS V14.00,2013-02-20 12:32:00,
2013-02-20 07:37:00,21.7,14.7,30.24,NW,326,12.0,12.0,74,0.00,,---,0.00,14.00,VWS V14.00,2013-02-20 12:37:00,
2013-02-20 07:42:00,21.6,14.6,30.24,WNW,294,9.0,10.0,74,0.00,,---,0.00,21.00,VWS V14.00,2013-02-20 12:42:00,
2013-02-20 07:47:00,21.6,14.9,30.24,NW,321,4.0,8.0,75,0.00,,---,0.00,23.00,VWS V14.00,2013-02-20 12:47:00,
2013-02-20 07:52:00,21.6,14.9,30.24,WNW,300,2.0,6.0,75,0.00,,---,0.00,28.00,VWS V14.00,2013-02-20 12:52:00,
2013-02-20 07:57:00,21.6,14.9,30.25,NNW,343,5.0,8.0,75,0.00,,---,0.00,39.00,VWS V14.00,2013-02-20 12:57:00,
2013-02-20 08:03:00,21.6,14.9,30.25,NW,319,4.0,11.0,75,0.00,,---,0.00,42.00,VWS V14.00,2013-02-20 13:03:00,
2013-02-20 08:08:00,21.6,14.9,30.25,NW,315,8.0,8.0,75,0.00,,---,0.00,39.00,VWS V14.00,2013-02-20 13:08:00,
2013-02-20 08:13:00,21.4,14.7,30.26,NW,323,4.0,8.0,75,0.00,,---,0.00,42.00,VWS V14.00,2013-02-20 13:13:00,
2013-02-20 08:18:00,21.3,14.9,30.26,NNW,343,6.0,8.0,76,0.00,,---,0.00,58.00,VWS V14.00,2013-02-20 13:18:00,
2013-02-20 08:23:00,21.2,14.8,30.26,NW,317,8.0,10.0,76,0.00,,---,0.00,67.00,VWS V14.00,2013-02-20 13:23:00,
2013-02-20 08:28:00,21.1,14.4,30.26,NNW,328,2.0,12.0,75,0.00,,---,0.00,37.00,VWS V14.00,2013-02-20 13:28:00,
2013-02-20 08:33:00,20.9,14.5,30.26,NNW,329,11.0,11.0,76,0.00,,---,0.00,42.00,VWS V14.00,2013-02-20 13:33:00,
2013-02-20 08:38:00,20.7,14.4,30.27,NW,319,10.0,11.0,76,0.00,,---,0.00,63.00,VWS V14.00,2013-02-20 13:38:00,
2013-02-20 08:43:00,20.8,14.4,30.27,NE,49,7.0,9.0,76,0.00,,---,0.00,130.00,VWS V14.00,2013-02-20 13:43:00,
2013-02-20 08:48:00,21.2,14.8,30.28,NNW,348,3.0,11.0,76,0.00,,---,0.00,234.00,VWS V14.00,2013-02-20 13:48:00,
2013-02-20 08:53:00,21.3,14.3,30.28,NW,322,9.0,14.0,74,0.00,,---,0.00,77.00,VWS V14.00,2013-02-20 13:53:00,
2013-02-20 08:58:00,21.2,14.2,30.28,NW,317,7.0,14.0,74,0.00,,---,0.00,83.00,VWS V14.00,2013-02-20 13:58:00,
2013-02-20 09:03:00,21.1,14.1,30.29,NW,306,10.0,14.0,74,0.00,,---,0.00,88.00,VWS V14.00,2013-02-20 14:03:00,
2013-02-20 09:08:00,20.8,13.5,30.29,WNW,286,13.0,16.0,73,0.00,,---,0.00,172.00,VWS V14.00,2013-02-20 14:08:00,
2013-02-20 09:13:00,20.6,13.3,30.29,NW,311,12.0,19.0,73,0.00,,---,0.00,265.00,VWS V14.00,2013-02-20 14:13:00,
2013-02-20 09:18:00,20.9,13.6,30.29,NW,315,10.0,15.0,73,0.00,,---,0.00,135.00,VWS V14.00,2013-02-20 14:18:00,
2013-02-20 09:23:00,21.1,13.5,30.29,NW,323,8.0,15.0,72,0.00,,---,0.00,97.00,VWS V14.00,2013-02-20 14:23:00,
2013-02-20 09:28:00,21.1,13.8,30.29,WNW,291,8.0,10.0,73,0.00,,---,0.00,111.00,VWS V14.00,2013-02-20 14:28:00,
2013-02-20 09:33:00,21.3,14.0,30.29,NNW,327,4.0,9.0,73,0.00,,---,0.00,241.00,VWS V14.00,2013-02-20 14:33:00,
2013-02-20 09:38:00,21.3,14.0,30.29,NNW,340,5.0,10.0,73,0.00,,---,0.00,149.00,VWS V14.00,2013-02-20 14:38:00,
2013-02-20 09:43:00,21.4,14.1,30.29,WNW,299,11.0,14.0,73,0.00,,---,0.00,155.00,VWS V14.00,2013-02-20 14:43:00,
2013-02-20 09:48:00,21.2,13.6,30.29,WNW,301,5.0,12.0,72,0.00,,---,0.00,188.00,VWS V14.00,2013-02-20 14:48:00,
2013-02-20 09:53:00,21.3,14.0,30.29,NW,323,11.0,14.0,73,0.00,,---,0.00,267.00,VWS V14.00,2013-02-20 14:53:00,
2013-02-20 09:58:00,21.8,14.8,30.28,NNW,340,6.0,13.0,74,0.00,,---,0.00,227.00,VWS V14.00,2013-02-20 14:58:00,
2013-02-20 10:03:00,21.7,13.8,30.29,NNW,332,4.0,13.0,71,0.00,,---,0.00,195.00,VWS V14.00,2013-02-20 15:03:00,
2013-02-20 10:08:00,21.9,14.6,30.29,NNW,342,4.0,8.0,73,0.00,,---,0.00,223.00,VWS V14.00,2013-02-20 15:08:00,
2013-02-20 10:13:00,22.1,14.5,30.29,NW,323,4.0,9.0,72,0.00,,---,0.00,193.00,VWS V14.00,2013-02-20 15:13:00,
2013-02-20 10:18:00,22.2,14.6,30.29,NNW,327,6.0,9.0,72,0.00,,---,0.00,128.00,VWS V14.00,2013-02-20 15:18:00,
2013-02-20 10:23:00,21.8,14.2,30.30,WNW,303,7.0,11.0,72,0.00,,---,0.00,654.00,VWS V14.00,2013-02-20 15:23:00,
2013-02-20 10:28:00,22.0,14.4,30.30,NNW,343,8.0,14.0,72,0.00,,---,0.00,218.00,VWS V14.00,2013-02-20 15:28:00,
2013-02-20 10:33:00,22.2,14.2,30.31,NW,325,11.0,16.0,71,0.00,,---,0.00,199.00,VWS V14.00,2013-02-20 15:33:00,
2013-02-20 10:38:00,22.5,14.9,30.31,NNW,333,4.0,12.0,72,0.00,,---,0.00,348.00,VWS V14.00,2013-02-20 15:38:00,
2013-02-20 10:43:00,23.0,14.7,30.31,NNW,338,4.0,7.0,70,0.00,,---,0.00,294.00,VWS V14.00,2013-02-20 15:43:00,
2013-02-20 10:48:00,23.0,14.7,30.31,NW,322,4.0,11.0,70,0.00,,---,0.00,229.00,VWS V14.00,2013-02-20 15:48:00,
2013-02-20 10:53:00,22.8,14.8,30.31,WNW,303,11.0,11.0,71,0.00,,---,0.00,209.00,VWS V14.00,2013-02-20 15:53:00,
2013-02-20 10:58:00,22.5,15.2,30.31,NNW,342,6.0,14.0,73,0.00,,---,0.00,229.00,VWS V14.00,2013-02-20 15:58:00,
2013-02-20 11:03:00,22.5,15.8,30.32,NNW,342,6.0,7.0,75,0.00,,---,0.00,262.00,VWS V14.00,2013-02-20 16:03:00,
2013-02-20 11:08:00,22.6,15.9,30.32,North,351,5.0,10.0,75,0.00,,---,0.00,221.00,VWS V14.00,2013-02-20 16:08:00,
2013-02-20 11:13:00,22.3,14.7,30.32,NW,305,8.0,10.0,72,0.00,,---,0.00,156.00,VWS V14.00,2013-02-20 16:13:00,
2013-02-20 11:18:00,22.2,14.2,30.32,WNW,292,11.0,12.0,71,0.00,,---,0.00,162.00,VWS V14.00,2013-02-20 16:18:00,
2013-02-20 11:23:00,22.5,14.9,30.32,WSW,255,4.0,11.0,72,0.00,,---,0.00,316.00,VWS V14.00,2013-02-20 16:23:00,
2013-02-20 11:28:00,22.6,14.9,30.32,NW,319,9.0,9.0,72,0.00,,---,0.00,264.00,VWS V14.00,2013-02-20 16:28:00,
2013-02-20 11:33:00,22.7,15.1,30.32,NNW,338,4.0,12.0,72,0.00,,---,0.00,125.00,VWS V14.00,2013-02-20 16:33:00,
2013-02-20 11:38:00,22.9,15.2,30.33,NW,310,10.0,12.0,72,0.00,,---,0.00,72.00,VWS V14.00,2013-02-20 16:38:00,
2013-02-20 11:43:00,22.9,14.6,30.32,WNW,295,6.0,12.0,70,0.00,,---,0.00,76.00,VWS V14.00,2013-02-20 16:43:00,
2013-02-20 11:48:00,23.3,15.9,30.32,WNW,296,11.0,15.0,73,0.00,,---,0.00,102.00,VWS V14.00,2013-02-20 16:48:00,
2013-02-20 11:53:00,23.5,15.5,30.32,West,281,8.0,15.0,71,0.00,,---,0.00,155.00,VWS V14.00,2013-02-20 16:53:00,
2013-02-20 11:58:00,23.8,15.1,30.32,NW,317,10.0,13.0,69,0.00,,---,0.00,144.00,VWS V14.00,2013-02-20 16:58:00,
2013-02-20 12:03:00,24.2,15.8,30.33,NW,313,7.0,12.0,70,0.00,,---,0.00,506.00,VWS V14.00,2013-02-20 17:03:00,
2013-02-20 12:08:00,24.2,15.2,30.32,NW,309,11.0,14.0,68,0.00,,---,0.00,751.00,VWS V14.00,2013-02-20 17:08:00,
2013-02-20 12:13:00,24.3,14.9,30.32,NW,315,3.0,13.0,67,0.00,,---,0.00,719.00,VWS V14.00,2013-02-20 17:13:00,
2013-02-20 12:18:00,24.5,15.5,30.32,NNW,348,7.0,9.0,68,0.00,,---,0.00,703.00,VWS V14.00,2013-02-20 17:18:00,
2013-02-20 12:23:00,24.9,15.5,30.32,West,263,7.0,11.0,67,0.00,,---,0.00,722.00,VWS V14.00,2013-02-20 17:23:00,
2013-02-20 12:28:00,25.2,15.8,30.32,WNW,301,5.0,13.0,67,0.00,,---,0.00,701.00,VWS V14.00,2013-02-20 17:28:00,
2013-02-20 12:33:00,25.2,16.1,30.31,NW,306,8.0,11.0,68,0.00,,---,0.00,742.00,VWS V14.00,2013-02-20 17:33:00,
2013-02-20 12:38:00,25.5,15.4,30.31,West,272,4.0,11.0,65,0.00,,---,0.00,740.00,VWS V14.00,2013-02-20 17:38:00,
2013-02-20 12:43:00,25.4,16.3,30.31,NNW,342,4.0,9.0,68,0.00,,---,0.00,737.00,VWS V14.00,2013-02-20 17:43:00,
2013-02-20 12:48:00,25.7,15.9,30.30,WNW,302,8.0,13.0,66,0.00,,---,0.00,724.00,VWS V14.00,2013-02-20 17:48:00,
2013-02-20 12:53:00,25.9,16.1,30.31,NW,309,9.0,10.0,66,0.00,,---,0.00,731.00,VWS V14.00,2013-02-20 17:53:00,
2013-02-20 12:58:00,25.9,15.8,30.32,North,355,0.0,10.0,65,0.00,,---,0.00,745.00,VWS V14.00,2013-02-20 17:58:00,
2013-02-20 13:03:00,26.0,15.9,30.31,NNW,338,4.0,12.0,65,0.00,,---,0.00,731.00,VWS V14.00,2013-02-20 18:03:00,
2013-02-20 13:08:00,26.3,16.1,30.31,North,355,6.0,11.0,65,0.00,,---,0.00,742.00,VWS V14.00,2013-02-20 18:08:00,
2013-02-20 13:13:00,26.7,16.9,30.31,NW,322,11.0,11.0,66,0.00,,---,0.00,735.00,VWS V14.00,2013-02-20 18:13:00,
2013-02-20 13:18:00,26.7,15.8,30.31,WNW,289,7.0,10.0,63,0.00,,---,0.00,752.00,VWS V14.00,2013-02-20 18:18:00,
2013-02-20 13:23:00,26.7,16.9,30.31,North,355,5.0,8.0,66,0.00,,---,0.00,766.00,VWS V14.00,2013-02-20 18:23:00,
2013-02-20 13:28:00,27.2,17.0,30.31,WNW,290,5.0,11.0,65,0.00,,---,0.00,737.00,VWS V14.00,2013-02-20 18:28:00,
2013-02-20 13:33:00,27.7,17.5,30.31,NW,323,6.0,9.0,65,0.00,,---,0.00,728.00,VWS V14.00,2013-02-20 18:33:00,
2013-02-20 13:38:00,27.9,17.0,30.30,West,259,9.0,9.0,63,0.00,,---,0.00,728.00,VWS V14.00,2013-02-20 18:38:00,
2013-02-20 13:43:00,27.6,16.3,30.30,NW,307,10.0,10.0,62,0.00,,---,0.00,700.00,VWS V14.00,2013-02-20 18:43:00,
2013-02-20 13:48:00,28.0,17.0,30.30,NW,309,11.0,11.0,63,0.00,,---,0.00,710.00,VWS V14.00,2013-02-20 18:48:00,
2013-02-20 13:53:00,27.6,15.9,30.29,West,269,7.0,11.0,61,0.00,,---,0.00,701.00,VWS V14.00,2013-02-20 18:53:00,
2013-02-20 13:58:00,27.6,16.7,30.30,SW,236,6.0,10.0,63,0.00,,---,0.00,696.00,VWS V14.00,2013-02-20 18:58:00,
2013-02-20 14:03:00,28.1,16.4,30.30,NW,311,6.0,13.0,61,0.00,,---,0.00,700.00,VWS V14.00,2013-02-20 19:03:00,
2013-02-20 14:08:00,27.9,16.2,30.30,WNW,294,11.0,16.0,61,0.00,,---,0.00,534.00,VWS V14.00,2013-02-20 19:08:00,
2013-02-20 14:13:00,27.9,15.8,30.30,NW,326,10.0,13.0,60,0.00,,---,0.00,647.00,VWS V14.00,2013-02-20 19:13:00,
2013-02-20 14:18:00,28.0,15.9,30.30,North,10,6.0,11.0,60,0.00,,---,0.00,638.00,VWS V14.00,2013-02-20 19:18:00,
2013-02-20 14:23:00,28.5,16.8,30.29,North,355,5.0,14.0,61,0.00,,---,0.00,619.00,VWS V14.00,2013-02-20 19:23:00,
2013-02-20 14:28:00,28.7,17.0,30.29,NW,309,8.0,11.0,61,0.00,,---,0.00,594.00,VWS V14.00,2013-02-20 19:28:00,
2013-02-20 14:33:00,28.9,17.2,30.29,NNW,343,2.0,13.0,61,0.00,,---,0.00,575.00,VWS V14.00,2013-02-20 19:33:00,
2013-02-20 14:38:00,29.2,17.1,30.29,NW,320,6.0,9.0,60,0.00,,---,0.00,594.00,VWS V14.00,2013-02-20 19:38:00,
2013-02-20 14:43:00,29.5,17.7,30.29,NW,312,7.0,8.0,61,0.00,,---,0.00,599.00,VWS V14.00,2013-02-20 19:43:00,
2013-02-20 14:48:00,29.7,16.8,30.29,West,281,1.0,8.0,58,0.00,,---,0.00,594.00,VWS V14.00,2013-02-20 19:48:00,
2013-02-20 14:53:00,29.8,18.0,30.29,WNW,294,4.0,13.0,61,0.00,,---,0.00,613.00,VWS V14.00,2013-02-20 19:53:00,
2013-02-20 14:59:00,29.6,16.6,30.29,WNW,290,9.0,12.0,58,0.00,,---,0.00,517.00,VWS V14.00,2013-02-20 19:59:00,
2013-02-20 15:04:00,29.3,17.1,30.29,North,351,4.0,10.0,60,0.00,,---,0.00,515.00,VWS V14.00,2013-02-20 20:04:00,
2013-02-20 15:09:00,29.6,16.6,30.29,North,350,2.0,10.0,58,0.00,,---,0.00,494.00,VWS V14.00,2013-02-20 20:09:00,
2013-02-20 15:14:00,29.7,17.1,30.29,WNW,288,4.0,9.0,59,0.00,,---,0.00,496.00,VWS V14.00,2013-02-20 20:14:00,
2013-02-20 15:19:00,29.6,16.6,30.30,NW,325,9.0,12.0,58,0.00,,---,0.00,452.00,VWS V14.00,2013-02-20 20:19:00,
2013-02-20 15:24:00,29.5,17.0,30.29,NW,319,1.0,7.0,59,0.00,,---,0.00,410.00,VWS V14.00,2013-02-20 20:24:00,
2013-02-20 15:29:00,29.7,17.1,30.29,NNW,343,1.0,9.0,59,0.00,,---,0.00,376.00,VWS V14.00,2013-02-20 20:29:00,
2013-02-20 15:34:00,29.8,16.8,30.30,NW,313,7.0,8.0,58,0.00,,---,0.00,406.00,VWS V14.00,2013-02-20 20:34:00,
2013-02-20 15:39:00,29.7,16.8,30.30,NNW,330,5.0,10.0,58,0.00,,---,0.00,410.00,VWS V14.00,2013-02-20 20:39:00,
2013-02-20 15:44:00,29.6,16.6,30.30,NNW,343,3.0,9.0,58,0.00,,---,0.00,374.00,VWS V14.00,2013-02-20 20:44:00,
2013-02-20 15:49:00,29.6,17.0,30.30,NNW,340,6.0,9.0,59,0.00,,---,0.00,392.00,VWS V14.00,2013-02-20 20:49:00,
2013-02-20 15:54:00,29.3,16.8,30.30,WNW,300,9.0,14.0,59,0.00,,---,0.00,366.00,VWS V14.00,2013-02-20 20:54:00,
2013-02-20 15:59:00,29.1,17.0,30.30,NNW,347,2.0,9.0,60,0.00,,---,0.00,403.00,VWS V14.00,2013-02-20 20:59:00,
2013-02-20 16:04:00,29.6,17.8,30.30,NW,304,9.0,10.0,61,0.00,,---,0.00,390.00,VWS V14.00,2013-02-20 21:04:00,
2013-02-20 16:09:00,29.9,18.1,30.30,NNW,339,6.0,12.0,61,0.00,,---,0.00,441.00,VWS V14.00,2013-02-20 21:09:00,
2013-02-20 16:14:00,29.8,17.2,30.30,NNW,336,2.0,10.0,59,0.00,,---,0.00,399.00,VWS V14.00,2013-02-20 21:14:00,
2013-02-20 16:19:00,29.8,18.0,30.30,NW,313,6.0,10.0,61,0.00,,---,0.00,359.00,VWS V14.00,2013-02-20 21:19:00,
2013-02-20 16:24:00,29.7,17.1,30.30,NE,38,6.0,7.0,59,0.00,,---,0.00,341.00,VWS V14.00,2013-02-20 21:24:00,
2013-02-20 16:29:00,29.6,17.0,30.30,NNW,328,6.0,10.0,59,0.00,,---,0.00,323.00,VWS V14.00,2013-02-20 21:29:00,
2013-02-20 16:34:00,29.3,17.1,30.31,NNW,340,0.0,11.0,60,0.00,,---,0.00,299.00,VWS V14.00,2013-02-20 21:34:00,
2013-02-20 16:39:00,29.4,17.2,30.31,NNW,338,7.0,11.0,60,0.00,,---,0.00,241.00,VWS V14.00,2013-02-20 21:39:00,
2013-02-20 16:44:00,29.4,17.6,30.30,NW,325,6.0,9.0,61,0.00,,---,0.00,227.00,VWS V14.00,2013-02-20 21:44:00,
2013-02-20 16:49:00,29.2,17.4,30.30,North,351,4.0,12.0,61,0.00,,---,0.00,206.00,VWS V14.00,2013-02-20 21:49:00,
2013-02-20 16:54:00,29.0,16.9,30.30,NNW,331,4.0,9.0,60,0.00,,---,0.00,200.00,VWS V14.00,2013-02-20 21:54:00,
2013-02-20 16:59:00,28.9,17.5,30.30,NW,313,11.0,12.0,62,0.00,,---,0.00,192.00,VWS V14.00,2013-02-20 21:59:00,
2013-02-20 17:04:00,28.7,17.0,30.31,NW,324,6.0,12.0,61,0.00,,---,0.00,139.00,VWS V14.00,2013-02-20 22:04:00,
2013-02-20 17:09:00,28.6,16.9,30.30,NW,306,8.0,10.0,61,0.00,,---,0.00,125.00,VWS V14.00,2013-02-20 22:09:00,
2013-02-20 17:14:00,28.4,16.7,30.30,NNW,346,3.0,10.0,61,0.00,,---,0.00,105.00,VWS V14.00,2013-02-20 22:14:00,
2013-02-20 17:19:00,28.3,16.6,30.30,WNW,298,5.0,9.0,61,0.00,,---,0.00,91.00,VWS V14.00,2013-02-20 22:19:00,
2013-02-20 17:24:00,28.2,16.9,30.30,NNW,336,5.0,10.0,62,0.00,,---,0.00,86.00,VWS V14.00,2013-02-20 22:24:00,
2013-02-20 17:29:00,28.0,16.7,30.30,NNW,331,6.0,12.0,62,0.00,,---,0.00,81.00,VWS V14.00,2013-02-20 22:29:00,
2013-02-20 17:34:00,27.9,17.0,30.30,NW,319,6.0,8.0,63,0.00,,---,0.00,69.00,VWS V14.00,2013-02-20 22:34:00,
2013-02-20 17:39:00,27.8,16.5,30.30,NNW,346,4.0,5.0,62,0.00,,---,0.00,60.00,VWS V14.00,2013-02-20 22:39:00,
2013-02-20 17:44:00,27.7,16.8,30.31,North,355,3.0,7.0,63,0.00,,---,0.00,47.00,VWS V14.00,2013-02-20 22:44:00,
2013-02-20 17:49:00,27.6,16.7,30.31,NW,325,1.0,5.0,63,0.00,,---,0.00,40.00,VWS V14.00,2013-02-20 22:49:00,
2013-02-20 17:54:00,27.5,16.6,30.31,NW,316,9.0,10.0,63,0.00,,---,0.00,33.00,VWS V14.00,2013-02-20 22:54:00,
2013-02-20 17:59:00,27.3,16.4,30.31,NW,319,2.0,9.0,63,0.00,,---,0.00,25.00,VWS V14.00,2013-02-20 22:59:00,
2013-02-20 18:04:00,27.2,16.3,30.31,NW,324,1.0,8.0,63,0.00,,---,0.00,18.00,VWS V14.00,2013-02-20 23:04:00,
2013-02-20 18:09:00,27.1,16.6,30.31,NW,321,3.0,9.0,64,0.00,,---,0.00,12.00,VWS V14.00,2013-02-20 23:09:00,
2013-02-20 18:14:00,27.0,16.5,30.31,NW,316,1.0,5.0,64,0.00,,---,0.00,7.00,VWS V14.00,2013-02-20 23:14:00,
2013-02-20 18:19:00,26.9,16.4,30.31,NW,325,1.0,7.0,64,0.00,,---,0.00,0.00,VWS V14.00,2013-02-20 23:19:00,
2013-02-20 18:24:00,26.8,16.6,30.32,NW,322,1.0,4.0,65,0.00,,---,0.00,0.00,VWS V14.00,2013-02-20 23:24:00,
2013-02-20 18:29:00,26.6,16.4,30.32,NW,311,5.0,5.0,65,0.00,,---,0.00,0.00,VWS V14.00,2013-02-20 23:29:00,
2013-02-20 18:34:00,26.6,16.1,30.33,NW,313,5.0,8.0,64,0.00,,---,0.00,0.00,VWS V14.00,2013-02-20 23:34:00,
2013-02-20 18:39:00,26.5,16.3,30.33,NW,304,8.0,8.0,65,0.00,,---,0.00,0.00,VWS V14.00,2013-02-20 23:39:00,
2013-02-20 18:44:00,26.5,16.3,30.33,NW,321,1.0,9.0,65,0.00,,---,0.00,0.00,VWS V14.00,2013-02-20 23:44:00,
2013-02-20 18:49:00,26.4,16.6,30.33,NW,311,3.0,5.0,66,0.00,,---,0.00,0.00,VWS V14.00,2013-02-20 23:49:00,
2013-02-20 18:54:00,26.4,16.2,30.33,NW,314,6.0,10.0,65,0.00,,---,0.00,0.00,VWS V14.00,2013-02-20 23:54:00,
2013-02-20 18:59:00,26.3,16.5,30.33,NNW,335,2.0,7.0,66,0.00,,---,0.00,0.00,VWS V14.00,2013-02-20 23:59:00,
2013-02-20 19:04:00,26.2,16.4,30.33,NW,315,5.0,8.0,66,0.00,,---,0.00,0.00,VWS V14.00,2013-02-21 00:04:00,
2013-02-20 19:09:00,26.1,16.3,30.33,NW,326,4.0,8.0,66,0.00,,---,0.00,0.00,VWS V14.00,2013-02-21 00:09:00,
2013-02-20 19:14:00,26.0,15.9,30.33,NW,321,0.0,8.0,65,0.00,,---,0.00,0.00,VWS V14.00,2013-02-21 00:14:00,
2013-02-20 19:19:00,25.9,16.1,30.33,NW,319,3.0,7.0,66,0.00,,---,0.00,0.00,VWS V14.00,2013-02-21 00:19:00,
2013-02-20 19:24:00,25.8,16.0,30.33,NW,323,2.0,7.0,66,0.00,,---,0.00,0.00,VWS V14.00,2013-02-21 00:24:00,
2013-02-20 19:29:00,25.8,16.4,30.33,NW,320,5.0,5.0,67,0.00,,---,0.00,0.00,VWS V14.00,2013-02-21 00:29:00,
2013-02-20 19:34:00,25.7,16.3,30.34,NW,326,1.0,4.0,67,0.00,,---,0.00,0.00,VWS V14.00,2013-02-21 00:34:00,
2013-02-20 19:39:00,25.6,16.2,30.33,NW,324,4.0,6.0,67,0.00,,---,0.00,0.00,VWS V14.00,2013-02-21 00:39:00,
2013-02-20 19:44:00,25.5,16.1,30.33,NW,321,1.0,7.0,67,0.00,,---,0.00,0.00,VWS V14.00,2013-02-21 00:44:00,
2013-02-20 19:49:00,25.4,16.0,30.33,NW,323,2.0,5.0,67,0.00,,---,0.00,0.00,VWS V14.00,2013-02-21 00:49:00,
2013-02-20 19:54:00,25.4,16.3,30.34,NW,326,2.0,4.0,68,0.00,,---,0.00,0.00,VWS V14.00,2013-02-21 00:54:00,
2013-02-20 19:59:00,25.4,16.0,30.33,NNW,338,1.0,5.0,67,0.00,,---,0.00,0.00,VWS V14.00,2013-02-21 00:59:00,
2013-02-20 20:04:00,25.4,16.3,30.34,NNW,331,2.0,5.0,68,0.00,,---,0.00,0.00,VWS V14.00,2013-02-21 01:04:00,
2013-02-20 20:09:00,25.4,16.3,30.34,NW,326,1.0,4.0,68,0.00,,---,0.00,0.00,VWS V14.00,2013-02-21 01:09:00,
2013-02-20 20:14:00,25.4,16.3,30.33,NNW,330,0.0,3.0,68,0.00,,---,0.00,0.00,VWS V14.00,2013-02-21 01:14:00,
2013-02-20 20:19:00,25.3,16.2,30.33,NNW,331,4.0,4.0,68,0.00,,---,0.00,0.00,VWS V14.00,2013-02-21 01:19:00,
2013-02-20 20:24:00,25.3,16.2,30.33,NNW,331,2.0,2.0,68,0.00,,---,0.00,0.00,VWS V14.00,2013-02-21 01:24:00,
2013-02-20 20:29:00,25.3,16.2,30.33,NNW,331,0.0,2.0,68,0.00,,---,0.00,0.00,VWS V14.00,2013-02-21 01:29:00,
2013-02-20 20:34:00,25.2,16.1,30.33,NNW,331,2.0,2.0,68,0.00,,---,0.00,0.00,VWS V14.00,2013-02-21 01:34:00,
2013-02-20 20:39:00,25.2,16.5,30.32,NNW,331,0.0,1.0,69,0.00,,---,0.00,0.00,VWS V14.00,2013-02-21 01:39:00,
2013-02-20 20:44:00,25.1,16.0,30.32,NNW,332,0.0,4.0,68,0.00,,---,0.00,0.00,VWS V14.00,2013-02-21 01:44:00,
2013-02-20 20:50:00,25.0,16.3,30.32,NNW,332,2.0,3.0,69,0.00,,---,0.00,0.00,VWS V14.00,2013-02-21 01:50:00,
2013-02-20 20:55:00,24.9,16.2,30.33,NNW,332,2.0,2.0,69,0.00,,---,0.00,0.00,VWS V14.00,2013-02-21 01:55:00,
2013-02-20 21:00:00,24.8,16.1,30.33,NNW,332,1.0,2.0,69,0.00,,---,0.00,0.00,VWS V14.00,2013-02-21 02:00:00,
2013-02-20 21:05:00,24.7,16.0,30.33,NNW,332,1.0,2.0,69,0.00,,---,0.00,0.00,VWS V14.00,2013-02-21 02:05:00,
2013-02-20 21:10:00,24.6,15.9,30.33,NNW,332,0.0,1.0,69,0.00,,---,0.00,0.00,VWS V14.00,2013-02-21 02:10:00,
2013-02-20 21:15:00,24.5,16.1,30.33,NNW,332,0.0,0.0,70,0.00,,---,0.00,0.00,VWS V14.00,2013-02-21 02:15:00,
2013-02-20 21:20:00,24.4,16.0,30.33,NNW,332,0.0,2.0,70,0.00,,---,0.00,0.00,VWS V14.00,2013-02-21 02:20:00,
2013-02-20 21:25:00,24.3,15.9,30.33,NNW,332,0.0,1.0,70,0.00,,---,0.00,0.00,VWS V14.00,2013-02-21 02:25:00,
2013-02-20 21:30:00,24.2,15.8,30.33,NNW,332,0.0,0.0,70,0.00,,---,0.00,0.00,VWS V14.00,2013-02-21 02:30:00,
2013-02-20 21:35:00,24.2,15.8,30.32,NNW,332,0.0,0.0,70,0.00,,---,0.00,0.00,VWS V14.00,2013-02-21 02:35:00,
2013-02-20 21:40:00,24.1,15.8,30.32,NNW,332,0.0,0.0,70,0.00,,---,0.00,0.00,VWS V14.00,2013-02-21 02:40:00,
2013-02-20 21:45:00,24.0,16.0,30.32,NNW,332,0.0,0.0,71,0.00,,---,0.00,0.00,VWS V14.00,2013-02-21 02:45:00,
2013-02-20 21:50:00,24.0,16.0,30.33,NNW,332,0.0,2.0,71,0.00,,---,0.00,0.00,VWS V14.00,2013-02-21 02:50:00,
2013-02-20 21:55:00,24.0,16.0,30.33,NNW,332,1.0,4.0,71,0.00,,---,0.00,0.00,VWS V14.00,2013-02-21 02:55:00,
2013-02-20 22:00:00,24.0,16.3,30.33,NNW,333,2.0,5.0,72,0.00,,---,0.00,0.00,VWS V14.00,2013-02-21 03:00:00,
2013-02-20 22:05:00,24.1,16.4,30.34,NNW,335,2.0,5.0,72,0.00,,---,0.00,0.00,VWS V14.00,2013-02-21 03:05:00,
2013-02-20 22:10:00,24.2,16.5,30.34,NNW,335,4.0,5.0,72,0.00,,---,0.00,0.00,VWS V14.00,2013-02-21 03:10:00,
2013-02-20 22:15:00,24.2,16.5,30.34,NNW,338,0.0,4.0,72,0.00,,---,0.00,0.00,VWS V14.00,2013-02-21 03:15:00,
2013-02-20 22:20:00,24.1,16.7,30.34,NNW,338,0.0,2.0,73,0.00,,---,0.00,0.00,VWS V14.00,2013-02-21 03:20:00,
2013-02-20 22:25:00,24.0,16.6,30.33,NNW,338,0.0,2.0,73,0.00,,---,0.00,0.00,VWS V14.00,2013-02-21 03:25:00,
2013-02-20 22:30:00,23.8,16.4,30.34,NNW,338,1.0,1.0,73,0.00,,---,0.00,0.00,VWS V14.00,2013-02-21 03:30:00,
2013-02-20 22:35:00,23.7,16.3,30.33,NNW,338,0.0,2.0,73,0.00,,---,0.00,0.00,VWS V14.00,2013-02-21 03:35:00,
2013-02-20 22:40:00,23.6,16.5,30.33,NNW,338,0.0,2.0,74,0.00,,---,0.00,0.00,VWS V14.00,2013-02-21 03:40:00,
2013-02-20 22:45:00,23.5,16.8,30.33,NNW,338,0.0,3.0,75,0.00,,---,0.00,0.00,VWS V14.00,2013-02-21 03:45:00,
2013-02-20 22:50:00,23.4,16.7,30.33,NNW,338,0.0,3.0,75,0.00,,---,0.00,0.00,VWS V14.00,2013-02-21 03:50:00,
2013-02-20 22:55:00,23.3,16.6,30.33,NNW,338,0.0,2.0,75,0.00,,---,0.00,0.00,VWS V14.00,2013-02-21 03:55:00,
2013-02-20 23:00:00,23.2,16.8,30.33,ESE,109,1.0,6.0,76,0.00,,---,0.00,0.00,VWS V14.00,2013-02-21 04:00:00,
2013-02-20 23:05:00,23.1,17.0,30.32,SE,131,1.0,5.0,77,0.00,,---,0.00,0.00,VWS V14.00,2013-02-21 04:05:00,
2013-02-20 23:10:00,23.1,17.0,30.32,NNE,25,1.0,5.0,77,0.00,,---,0.00,0.00,VWS V14.00,2013-02-21 04:10:00,
2013-02-20 23:15:00,23.1,17.3,30.32,SE,128,0.0,2.0,78,0.00,,---,0.00,0.00,VWS V14.00,2013-02-21 04:15:00,
2013-02-20 23:20:00,23.0,17.2,30.33,ESE,106,1.0,7.0,78,0.00,,---,0.00,0.00,VWS V14.00,2013-02-21 04:20:00,
2013-02-20 23:25:00,22.9,17.1,30.32,ESE,106,1.0,1.0,78,0.00,,---,0.00,0.00,VWS V14.00,2013-02-21 04:25:00,
2013-02-20 23:30:00,22.8,17.3,30.33,ESE,116,1.0,4.0,79,0.00,,---,0.00,0.00,VWS V14.00,2013-02-21 04:30:00,
2013-02-20 23:35:00,22.7,17.2,30.34,East,86,1.0,6.0,79,0.00,,---,0.00,0.00,VWS V14.00,2013-02-21 04:35:00,
2013-02-20 23:40:00,22.6,17.1,30.34,East,97,0.0,2.0,79,0.00,,---,0.00,0.00,VWS V14.00,2013-02-21 04:40:00,
2013-02-20 23:45:00,22.5,17.3,30.33,East,96,0.0,1.0,80,0.00,,---,0.00,0.00,VWS V14.00,2013-02-21 04:45:00,
2013-02-20 23:50:00,22.3,17.1,30.33,East,101,1.0,4.0,80,0.00,,---,0.00,0.00,VWS V14.00,2013-02-21 04:50:00,
2013-02-20 23:55:00,22.1,16.9,30.33,East,80,0.0,2.0,80,0.00,,---,0.00,0.00,VWS V14.00,2013-02-21 04:55:00,